{"data":{"norad_id":65241,"intl_designator":"2025-179G","name":"STARLINK-34969","alt_names":[],"object_type":"PAYLOAD","status":"ACTIVE","operator":null,"country":"US","launch_date":"2025-08-18","launch_site_code":"AFWTR","launch_vehicle":null,"mission":null,"orbit_class":"UNKNOWN","rcs_meters":null,"size_class":null,"mass_kg":null,"dimensions":null,"purposes":["comms"],"wikipedia_slug":null,"has_3d_model":false,"image_url":null,"decayed_at":null,"tle_current":{"epoch":"2026-05-25T02:01:22.739808Z","epoch_age_seconds":71735,"freshness":"FRESH","line1":"1 65241U 25179G   26145.08429097  .00028347  00000+0  19565-2 0  9990","line2":"2 65241  97.4515 187.9026 0002697 109.3870 250.7648 15.05731200 43313","mean_motion":15.057312,"eccentricity":0.0002697,"inclination_deg":97.4515,"raan_deg":187.9026,"arg_perigee_deg":109.387,"mean_anomaly_deg":250.7648,"bstar":0.0019565,"rev_number":4331,"period_min":95.634599322907,"perigee_km":547.39377274746,"apogee_km":551.13041181784,"semimajor_km":6927.3990922827,"source":"CELESTRAK","updated_at":"2026-05-25T13:38:20.725083Z"}}}